STARLINK-3694, 51957

Orbit data source: Space-Track

STARLINK-3694, 51957 is a payload satellite owned by SpaceX/Seattle (US) in LEO that was launched on Wed, 09 Mar 2022 UTC via an FALCON 9 launch vehicle from the Air Force Eastern Test Range (AFETR). Payload-class satellites include a variety of spacecraft equipped with specific instruments for various scientific and technological missions. These include communications satellites like Starlink; space stations such as the ISS; scientific satellites like the Hubble; Earth observation satellites from companies like Planet Labs, Umbra, and HawkEye 360; GPS; miniature CubeSats for education and research; and military/defense satellites.

Loading next visibility...
Identifier
51957, 2022-025B
Orbit
LEO
Country
Flag of USUS
Related business
Manufacturer
SpaceX/Seattle
Mission
Operational Commercial Communications
Bus & Motor
STARLINK, Unknown motor
Mass
297 kg wet, ~275 kg dry
Launch date (UTC)
2022-03-09 (4 years ago)
Launch vehicle
FALCON 9
Launch site
Air Force Eastern Test Range (AFETR)
Object type
Payload
Rocket body
Debris
Shape & HBR
Box + 1 Pan, 10.1 m
Radar Cross Section
13.562 m², Large (>1 m²)

Expand to show TLE details & history
Last TLE update: 12 hours ago

TLE from 12 hours ago
0 STARLINK-3694
1 51957U 22025B   25346.95442487 -.00000944  00000-0 -44514-4 0  9992
2 51957  53.0521  65.2392 0000898  82.5936 277.5155 15.06383514207771
Epoch: 2025-12-12T22:54Z
TLE epoch observation values (Epoch: 2025-12-12T22:54:22.308Z)
Latitude
-0.00004°
Longitude
-0.24241°
Altitude
548.06 km
Speed
7.589 km/s
True Right ascension
04h 20m 57s
True Declination
0° 00' 00"
Sunlit
Object was in full shadow at epoch
Visualization orbit readout
Latitude
Unknown
Longitude
Unknown
Altitude
Unknown
Speed
Unknown
Apparent Right ascension
Unknown
Apparent Declination
Unknown
Sunlit
N/A
Visualization observer readout
Local Sidereal Time
09:14:37
Azimuth
Unknown
Elevation
Unknown
Doppler factor
Unknown
Orbital elements
Apogee altitude
548.155 km
Perigee altitude
546.911 km
Semi-major axis
6,925.67 km
Eccentricity
0.00009
Inclination
53.0521°
RAAN
65.2392°
Arg. of periapsis
82.5936°
True anomaly
277.5053°
Mean anomaly
277.5155°
Eccentric anomaly
277.5104°
Mean motion
3.76574 °/min
Orbital period
95.6 mins
BSTAR
-0.000044514
Loading maneuver chart data...
Computing Atmospheric mass density...
Loading historical data...
Loading historical data...
Loading historical data...
Loading historical data...
Loading historical data...
Loading historical data...
Loading historical data...

Documentation

Showing up to 5 results
|